User: anonymous   Login
Location: Treviso
(45.6669°N, 12.2430°E)
Time: 00:56:51
(UTC+01:00)
Language:

AAUSAT CUBESAT 2 - Orbit

View from above orbital plane
View from above orbital plane
View from above satellite
View from above satellite

Ground track
Ground track

The orbit data is extracted from the following two-line orbital elements,

1 32788U 08021F   21060.43190130  .00000335  00000-0  35224-4 0  9990
2 32788  97.5015  59.6541 0010083 273.9950  86.0118 14.95414955697715
Epoch (UTC): 01 March 2021 10:21:56
Eccentricity: 0.0010083
inclination: 97.5015°
perigee height: 574 km
apogee height: 588 km
right ascension of ascending node: 59.6541°
argument of perigee: 273.9950°
revolutions per day: 14.95414955
mean anomaly at epoch: 86.0118°
orbit number at epoch: 69771

The dashed part of the orbit path shows where the satellite is in the earth's shadow,  

DLR